Location: Jacksonville
(30.3320°N, 81.6560°W)
Time: 12:53:52
(UTC-04:00)

HTV-X1 - Visible Passes

Search period start: 08 June 2026 00:00
Search period end: 18 June 2026 00:00
Orbit: 368 x 378 km, 51.6° (Epoch: 26 May)

Date Brightness Start Highest point End Pass type
(mag) Time Alt. Az. Time Alt. Az. Time Alt. Az.
15 Jun ? 05:50:35 10° SSW 05:53:27 39° SE 05:56:21 10° ENE visible
16 Jun ? 04:49:17 11° SE 04:50:17 12° SE 04:51:38 10° E visible
17 Jun ? 05:20:30 22° SSW 05:22:18 70° SE 05:25:20 10° NE visible
